| time (UTC) | temp F | wind direction | speed knots | gust knots | rain 1hr in | rain 24hr in | rain mn in | humidity % | barometer mb |
| 20260903183028 | 82 | 248 | 1.7 | 3.5 | 0.00 | 0.00 | 0.00 | 59 | 1023.7 |
| 20260903182028 | 82 | 248 | 2.6 | 6.1 | 0.00 | 0.00 | 0.00 | 58 | 1023.5 |
| 20260903181049 | 83 | 203 | 3.5 | 7.0 | 0.00 | 0.00 | 0.00 | 58 | 1023.5 |
| 20260903180029 | 83 | 180 | 4.3 | 8.7 | 0.00 | 0.00 | 0.00 | 57 | 1023.3 |
| 20260903175049 | 84 | 180 | 4.3 | 10.4 | 0.00 | 0.00 | 0.00 | 55 | 1023.3 |
| 20260903174029 | 85 | 180 | 3.5 | 7.0 | 0.00 | 0.00 | 0.00 | 52 | 1023.2 |
| 20260903173029 | 86 | 180 | 3.5 | 7.8 | 0.00 | 0.00 | 0.00 | 49 | 1023.2 |
| 20260903172028 | 86 | 158 | 2.6 | 6.1 | 0.00 | 0.00 | 0.00 | 48 | 1023.2 |
| 20260903171028 | 86 | 135 | 4.3 | 9.6 | 0.00 | 0.00 | 0.00 | 47 | 1023.2 |
| 20260903170028 | 87 | 135 | 4.3 | 9.6 | 0.00 | 0.00 | 0.00 | 46 | 1023.3 |
| 20260903165028 | 88 | 158 | 3.5 | 9.6 | 0.00 | 0.00 | 0.00 | 45 | 1023.3 |
| 20260903164048 | 88 | 135 | 4.3 | 12.2 | 0.00 | 0.00 | 0.00 | 44 | 1023.3 |
| 20260903163028 | 88 | 158 | 4.3 | 10.4 | 0.00 | 0.00 | 0.00 | 44 | 1023.1 |
| 20260903162028 | 88 | 158 | 6.1 | 11.3 | 0.00 | 0.00 | 0.00 | 43 | 1023.2 |
| 20260903161028 | 89 | 135 | 6.1 | 11.3 | 0.00 | 0.00 | 0.00 | 42 | 1023.2 |
| 20260903160028 | 89 | 0 | 6.1 | 13.0 | 0.00 | 0.00 | 0.00 | 42 | 1023.2 |
| 20260903155028 | 89 | 135 | 6.1 | 12.2 | 0.00 | 0.00 | 0.00 | 41 | 1023.2 |
| 20260903154028 | 90 | 135 | 7.0 | 13.9 | 0.00 | 0.00 | 0.00 | 40 | 1023.0 |
| 20260903153028 | 91 | 158 | 6.1 | 12.2 | 0.00 | 0.00 | 0.00 | 39 | 1023.2 |
| 20260903152028 | 91 | 180 | 6.1 | 12.2 | 0.00 | 0.00 | 0.00 | 37 | 1023.2 |
| 20260903151028 | 91 | 180 | 7.0 | 12.2 | 0.00 | 0.00 | 0.00 | 37 | 1023.2 |
| 20260903150028 | 92 | 180 | 5.2 | 12.2 | 0.00 | 0.00 | 0.00 | 36 | 1023.4 |
| 20260903145028 | 91 | 180 | 6.1 | 13.0 | 0.00 | 0.00 | 0.00 | 35 | 1023.3 |
| 20260903144028 | 91 | 180 | 4.3 | 9.6 | 0.00 | 0.00 | 0.00 | 35 | 1023.2 |
| 20260903143027 | 92 | 180 | 4.3 | 11.3 | 0.00 | 0.00 | 0.00 | 35 | 1023.4 |
| 20260903142027 | 92 | 135 | 4.3 | 10.4 | 0.00 | 0.00 | 0.00 | 35 | 1023.4 |
| 20260903141027 | 91 | 113 | 4.3 | 9.6 | 0.00 | 0.00 | 0.00 | 36 | 1023.5 |
| 20260903140027 | 91 | 158 | 2.6 | 8.7 | 0.00 | 0.00 | 0.00 | 36 | 1023.5 |
| 20260903135029 | 90 | 113 | 2.6 | 7.8 | 0.00 | 0.00 | 0.00 | 38 | 1023.7 |
| 20260903134049 | 90 | 135 | 4.3 | 11.3 | 0.00 | 0.00 | 0.00 | 38 | 1023.8 |
| 20260903133029 | 90 | 135 | 2.6 | 7.0 | 0.00 | 0.00 | 0.00 | 39 | 1024.0 |
| 20260903132049 | 90 | 135 | 2.6 | 9.6 | 0.00 | 0.00 | 0.00 | 38 | 1024.0 |
| 20260903131049 | 89 | 158 | 1.7 | 7.0 | 0.00 | 0.00 | 0.00 | 39 | 1023.9 |
| 20260903130029 | 88 | 158 | 3.5 | 8.7 | 0.00 | 0.00 | 0.00 | 40 | 1024.0 |
| 20260903125049 | 88 | 158 | 2.6 | 8.7 | 0.00 | 0.00 | 0.00 | 40 | 1024.0 |
| 20260903124029 | 88 | 135 | 3.5 | 7.0 | 0.00 | 0.00 | 0.00 | 41 | 1024.1 |
| 20260903123029 | 87 | 158 | 2.6 | 6.1 | 0.00 | 0.00 | 0.00 | 41 | 1024.2 |
| 20260903122029 | 87 | 113 | 2.6 | 7.8 | 0.00 | 0.00 | 0.00 | 41 | 1024.3 |
| 20260903121029 | 87 | 158 | 2.6 | 6.1 | 0.00 | 0.00 | 0.00 | 42 | 1024.4 |
| 20260903120029 | 86 | 158 | 3.5 | 6.1 | 0.00 | 0.00 | 0.00 | 42 | 1024.5 |
| 20260903115109 | 86 | 90 | 1.7 | 5.2 | 0.00 | 0.00 | 0.00 | 43 | 1024.6 |
| 20260903114029 | 85 | 180 | 2.6 | 8.7 | 0.00 | 0.00 | 0.00 | 44 | 1024.6 |
| 20260903113029 | 85 | 158 | 3.5 | 8.7 | 0.00 | 0.00 | 0.00 | 45 | 1024.6 |
| 20260903112029 | 85 | 113 | 1.7 | 7.0 | 0.00 | 0.00 | 0.00 | 45 | 1024.7 |
| 20260903111029 | 84 | 158 | 1.7 | 5.2 | 0.00 | 0.00 | 0.00 | 46 | 1024.8 |
| 20260903110049 | 83 | 180 | 3.5 | 7.8 | 0.00 | 0.00 | 0.00 | 48 | 1024.9 |
| 20260903105049 | 83 | 135 | 3.5 | 7.8 | 0.00 | 0.00 | 0.00 | 48 | 1025.1 |
| 20260903104029 | 82 | 135 | 1.7 | 8.7 | 0.00 | 0.00 | 0.00 | 49 | 1025.2 |
| 20260903103028 | 82 | 90 | 2.6 | 6.1 | 0.00 | 0.00 | 0.00 | 49 | 1025.4 |
| 20260903102029 | 82 | 135 | 2.6 | 7.8 | 0.00 | 0.00 | 0.00 | 49 | 1025.5 |
| 20260903101109 | 81 | 158 | 2.6 | 6.1 | 0.00 | 0.00 | 0.00 | 50 | 1025.6 |
| 20260903100028 | 81 | 90 | 1.7 | 6.1 | 0.00 | 0.00 | 0.00 | 51 | 1025.6 |
| 20260903095029 | 80 | 135 | 2.6 | 7.0 | 0.00 | 0.00 | 0.00 | 53 | 1025.6 |
| 20260903094028 | 79 | 158 | 1.7 | 4.3 | 0.00 | 0.00 | 0.00 | 55 | 1025.6 |
| 20260903093029 | 79 | 158 | 1.7 | 4.3 | 0.00 | 0.00 | 0.00 | 55 | 1025.6 |
| 20260903092028 | 79 | 113 | 2.6 | 7.8 | 0.00 | 0.00 | 0.00 | 55 | 1025.6 |
| 20260903091029 | 78 | 180 | 3.5 | 6.1 | 0.00 | 0.00 | 0.00 | 57 | 1025.5 |
| 20260903090028 | 79 | 135 | 1.7 | 6.1 | 0.00 | 0.00 | 0.00 | 55 | 1025.6 |
| 20260903085049 | 79 | 135 | 1.7 | 6.1 | 0.00 | 0.00 | 0.00 | 54 | 1025.5 |
| 20260903084028 | 79 | 135 | 1.7 | 4.3 | 0.00 | 0.00 | 0.00 | 55 | 1025.3 |
| 20260903083029 | 78 | 158 | 1.7 | 4.3 | 0.00 | 0.00 | 0.00 | 56 | 1025.3 |
| 20260903082048 | 78 | 113 | 0.9 | 3.5 | 0.00 | 0.00 | 0.00 | 59 | 1025.3 |
| 20260903081028 | 76 | 90 | 1.7 | 5.2 | 0.00 | 0.00 | 0.00 | 59 | 1025.2 |
| 20260903080049 | 75 | 90 | 3.5 | 6.1 | 0.00 | 0.00 | 0.00 | 61 | 1025.2 |
| 20260903075028 | 75 | 90 | 2.6 | 4.3 | 0.00 | 0.00 | 0.00 | 64 | 1025.2 |
| 20260903074028 | 73 | 68 | 3.5 | 6.1 | 0.00 | 0.00 | 0.00 | 67 | 1025.0 |
| 20260903073028 | 72 | 68 | 6.1 | 9.6 | 0.00 | 0.00 | 0.00 | 69 | 1025.1 |
| 20260903072028 | 70 | 45 | 7.0 | 9.6 | 0.00 | 0.00 | 0.00 | 71 | 1025.1 |
| 20260903071028 | 70 | 68 | 5.2 | 7.8 | 0.00 | 0.00 | 0.00 | 71 | 1025.1 |
| 20260903070028 | 70 | 45 | 5.2 | 8.7 | 0.00 | 0.00 | 0.00 | 71 | 1025.0 |
| 20260903065028 | 69 | 45 | 5.2 | 9.6 | 0.00 | 0.00 | 0.00 | 72 | 1025.1 |
| 20260903064028 | 69 | 45 | 4.3 | 7.0 | 0.00 | 0.00 | 0.00 | 72 | 1025.1 |
| 20260903063028 | 69 | 45 | 4.3 | 7.8 | 0.00 | 0.00 | 0.00 | 72 | 1025.1 |
| 20260903062048 | 68 | 45 | 4.3 | 7.0 | 0.00 | 0.00 | 0.00 | 72 | 1025.0 |
| 20260903061028 | 68 | 45 | 4.3 | 7.0 | 0.00 | 0.00 | 0.00 | 73 | 1025.0 |
| 20260903060028 | 67 | 45 | 5.2 | 7.8 | 0.00 | 0.00 | 0.00 | 74 | 1024.9 |
| 20260903055048 | 67 | 45 | 3.5 | 6.1 | 0.00 | 0.00 | 0.00 | 75 | 1024.8 |
| 20260903054028 | 67 | 45 | 5.2 | 7.0 | 0.00 | 0.00 | 0.00 | 75 | 1024.8 |
| 20260903053108 | 67 | 45 | 5.2 | 7.8 | 0.00 | 0.00 | 0.00 | 75 | 1024.9 |
| 20260903052048 | 67 | 45 | 4.3 | 7.0 | 0.00 | 0.00 | 0.00 | 75 | 1024.8 |
| 20260903051048 | 67 | 45 | 4.3 | 7.0 | 0.00 | 0.00 | 0.00 | 76 | 1024.7 |
| 20260903050028 | 67 | 45 | 4.3 | 6.1 | 0.00 | 0.00 | 0.00 | 75 | 1024.8 |
| 20260903045027 | 67 | 45 | 4.3 | 7.0 | 0.00 | 0.00 | 0.00 | 75 | 1024.8 |
| 20260903044108 | 67 | 45 | 5.2 | 7.8 | 0.00 | 0.00 | 0.00 | 76 | 1024.7 |
| 20260903043030 | 67 | 45 | 6.1 | 8.7 | 0.00 | 0.00 | 0.00 | 76 | 1024.6 |
| 20260903042027 | 67 | 45 | 7.0 | 8.7 | 0.00 | 0.00 | 0.00 | 75 | 1024.6 |
| 20260903041028 | 67 | 45 | 6.1 | 7.8 | 0.00 | 0.00 | 0.00 | 75 | 1024.6 |
| 20260903040048 | 67 | 45 | 5.2 | 7.0 | 0.00 | 0.00 | 0.00 | 75 | 1024.7 |
| 20260903035028 | 67 | 45 | 5.2 | 7.8 | 0.00 | 0.00 | 0.00 | 75 | 1024.7 |
| 20260903034028 | 67 | 45 | 5.2 | 7.8 | 0.00 | 0.00 | 0.00 | 75 | 1024.8 |
| 20260903033028 | 67 | 45 | 5.2 | 7.8 | 0.00 | 0.00 | 0.00 | 75 | 1025.1 |
| 20260903032027 | 68 | 45 | 6.1 | 8.7 | 0.00 | 0.00 | 0.00 | 75 | 1025.1 |
| 20260903031027 | 67 | 45 | 6.1 | 7.8 | 0.00 | 0.00 | 0.00 | 75 | 1025.2 |
| 20260903030028 | 68 | 45 | 5.2 | 7.0 | 0.00 | 0.00 | 0.00 | 74 | 1025.2 |
| 20260903025027 | 68 | 45 | 4.3 | 7.8 | 0.00 | 0.00 | 0.00 | 74 | 1025.3 |
| 20260903024027 | 68 | 45 | 4.3 | 7.0 | 0.00 | 0.00 | 0.00 | 74 | 1025.2 |
| 20260903023047 | 68 | 45 | 4.3 | 7.0 | 0.00 | 0.00 | 0.00 | 74 | 1025.4 |
| 20260903022027 | 68 | 45 | 6.1 | 8.7 | 0.00 | 0.00 | 0.00 | 73 | 1025.4 |
| 20260903021048 | 68 | 45 | 5.2 | 8.7 | 0.00 | 0.00 | 0.00 | 73 | 1025.4 |
| 20260903020027 | 68 | 68 | 6.1 | 8.7 | 0.00 | 0.00 | 0.00 | 74 | 1025.3 |
| 20260903015027 | 68 | 45 | 5.2 | 7.8 | 0.00 | 0.00 | 0.00 | 74 | 1025.4 |
| 20260903014027 | 68 | 45 | 5.2 | 8.7 | 0.00 | 0.00 | 0.00 | 74 | 1025.4 |
| 20260903013027 | 68 | 45 | 4.3 | 8.7 | 0.00 | 0.00 | 0.00 | 74 | 1025.5 |
| 20260903012027 | 68 | 45 | 5.2 | 7.8 | 0.00 | 0.00 | 0.00 | 73 | 1025.5 |
| 20260903011047 | 69 | 45 | 5.2 | 7.8 | 0.00 | 0.00 | 0.00 | 73 | 1025.5 |
| 20260903010027 | 69 | 45 | 4.3 | 6.1 | 0.00 | 0.00 | 0.00 | 72 | 1025.5 |
| 20260903005027 | 69 | 68 | 3.5 | 6.1 | 0.00 | 0.00 | 0.00 | 72 | 1025.6 |
| 20260903004027 | 70 | 68 | 1.7 | 5.2 | 0.00 | 0.00 | 0.00 | 71 | 1025.7 |
| 20260903003027 | 70 | 45 | 0.9 | 4.3 | 0.00 | 0.00 | 0.00 | 71 | 1025.7 |
| 20260903002049 | 70 | 45 | 0.9 | 4.3 | 0.00 | 0.00 | 0.00 | 70 | 1025.8 |
| 20260903001049 | 70 | 293 | 0.9 | 2.6 | 0.00 | 0.00 | 0.00 | 70 | 1025.8 |
| 20260903000027 | 70 | 270 | 2.6 | 3.5 | 0.00 | 0.00 | 0.00 | 71 | 1025.7 |
| 20260902235027 | 70 | 45 | 1.7 | 6.1 | 0.00 | 0.00 | 0.00 | 71 | 1025.7 |
| 20260902234047 | 70 | 45 | 3.5 | 6.1 | 0.00 | 0.00 | 0.00 | 71 | 1025.7 |
| 20260902233027 | 71 | 45 | 3.5 | 6.1 | 0.00 | 0.00 | 0.00 | 69 | 1025.6 |
| 20260902232047 | 72 | 338 | 1.7 | 5.2 | 0.00 | 0.00 | 0.00 | 67 | 1025.4 |
| 20260902231027 | 72 | 23 | 0.9 | 1.7 | 0.00 | 0.00 | 0.00 | 68 | 1025.4 |
| 20260902230027 | 72 | 23 | 0.9 | 3.5 | 0.00 | 0.00 | 0.00 | 67 | 1025.4 |
| 20260902225027 | 72 | 0.0 | 0.0 | 0.00 | 0.00 | 0.00 | 67 | 1025.2 | |
| 20260902224049 | 72 | 45 | 0.9 | 2.6 | 0.00 | 0.00 | 0.00 | 66 | 1025.2 |
| 20260902223029 | 73 | 0.0 | 3.5 | 0.00 | 0.00 | 0.00 | 66 | 1025.2 | |
| 20260902222049 | 73 | 0.0 | 2.6 | 0.00 | 0.00 | 0.00 | 65 | 1025.2 | |
| 20260902221029 | 73 | 315 | 0.9 | 2.6 | 0.00 | 0.00 | 0.00 | 65 | 1025.2 |
| 20260902220029 | 73 | 315 | 0.9 | 4.3 | 0.00 | 0.00 | 0.00 | 65 | 1025.0 |
| 20260902215109 | 73 | 293 | 1.7 | 5.2 | 0.00 | 0.00 | 0.00 | 65 | 1025.0 |
| 20260902214029 | 73 | 293 | 2.6 | 3.5 | 0.00 | 0.00 | 0.00 | 65 | 1025.0 |
| 20260902213029 | 73 | 293 | 0.9 | 1.7 | 0.00 | 0.00 | 0.00 | 65 | 1025.0 |
| 20260902212029 | 74 | 293 | 1.7 | 2.6 | 0.00 | 0.00 | 0.00 | 64 | 1025.0 |
| 20260902211029 | 74 | 0.0 | 1.7 | 0.00 | 0.00 | 0.00 | 63 | 1024.8 | |
| 20260902210029 | 74 | 90 | 1.7 | 4.3 | 0.00 | 0.00 | 0.00 | 63 | 1024.9 |
| 20260902205029 | 74 | 0 | 3.5 | 5.2 | 0.00 | 0.00 | 0.00 | 62 | 1024.9 |
| 20260902204029 | 74 | 0 | 3.5 | 6.1 | 0.00 | 0.00 | 0.00 | 63 | 1024.9 |
| 20260902203028 | 74 | 338 | 4.3 | 6.1 | 0.00 | 0.00 | 0.00 | 62 | 1024.7 |
| 20260902202029 | 75 | 315 | 1.7 | 4.3 | 0.00 | 0.00 | 0.00 | 62 | 1024.8 |
| 20260902201028 | 76 | 180 | 1.7 | 3.5 | 0.00 | 0.00 | 0.00 | 61 | 1024.6 |
| 20260902200028 | 76 | 180 | 1.7 | 3.5 | 0.00 | 0.00 | 0.00 | 60 | 1024.3 |
| 20260902195029 | 76 | 270 | 1.7 | 4.3 | 0.00 | 0.00 | 0.00 | 60 | 1024.2 |
| 20260902194029 | 76 | 225 | 3.5 | 7.8 | 0.00 | 0.00 | 0.00 | 59 | 1024.1 |
| 20260902193029 | 77 | 248 | 3.5 | 7.0 | 0.00 | 0.00 | 0.00 | 58 | 1024.0 |
| 20260902192028 | 78 | 225 | 3.5 | 7.0 | 0.00 | 0.00 | 0.00 | 57 | 1023.9 |
| 20260902191029 | 78 | 203 | 2.6 | 6.1 | 0.00 | 0.00 | 0.00 | 56 | 1023.6 |
| 20260902190029 | 79 | 225 | 2.6 | 6.1 | 0.00 | 0.00 | 0.00 | 55 | 1023.4 |
| 20260902185028 | 79 | 225 | 1.7 | 3.5 | 0.00 | 0.00 | 0.00 | 54 | 1023.3 |
| 20260902184028 | 80 | 180 | 2.6 | 5.2 | 0.00 | 0.00 | 0.00 | 53 | 1023.1 |